User: anonymous   Login
Location: Melbourne
(37.8170°S, 144.9670°E)
Time: 09:49:45
(UTC+11:00)
Language:

CZ-3 R/B - Orbit

View from above orbital plane
View from above orbital plane
View from above satellite
View from above satellite

Ground track
Ground track

The orbit data is extracted from the following two-line orbital elements,

1 29517U 06048B   17321.23253941  .00010652  00000-0  64891-3 0  9990
2 29517  28.4487 281.1826 4336350 274.3697  38.8552  6.83407851177995
Epoch (UTC): 17 November 2017 05:34:51
Eccentricity: 0.4336350
inclination: 28.4487°
perigee height: 265 km
apogee height: 10437 km
right ascension of ascending node: 281.1826°
argument of perigee: 274.3697°
revolutions per day: 6.83407851
mean anomaly at epoch: 38.8552°
orbit number at epoch: 17799

The dashed part of the orbit path shows where the satellite is in the earth's shadow,  

DLR